Location: Fort Wayne
(41.1310°N, 85.1290°W)
Time: 13:27:43
(UTC-04:00)

Courier 1B Rocket - All Passes

Search period start: 16 September 2014 00:00
Search period end: 26 September 2014 00:00
Orbit: 921 x 1202 km, 28.2° (Epoch: 15 September)

Date Brightness Start Highest point End Pass type
(mag) Time Alt. Az. Time Alt. Az. Time Alt. Az.
16 Sep - 01:32:54 10° SW 01:36:32 14° SSW 01:40:07 10° S night (unlit)
16 Sep - 18:52:50 10° SSW 18:57:22 18° SSE 19:02:02 10° ESE daylight
16 Sep - 20:43:49 10° SW 20:50:02 29° S 20:56:28 10° ESE visible
16 Sep - 22:36:33 10° WSW 22:42:57 29° S 22:49:27 10° SE visible
17 Sep - 00:30:45 10° WSW 00:35:44 18° SSW 00:40:42 10° SSE visible
17 Sep - 17:53:47 10° S 17:56:40 13° SSE 17:59:37 10° SE daylight
17 Sep - 19:43:22 10° SW 19:49:10 26° SSE 19:55:12 10° ESE daylight
17 Sep - 21:35:38 10° WSW 21:42:01 31° S 21:48:36 10° SE visible
17 Sep - 23:29:11 10° WSW 23:34:53 23° SSW 23:40:37 10° SSE visible
18 Sep - 18:43:13 10° SSW 18:48:22 22° SSE 18:53:45 10° ESE daylight
18 Sep - 20:34:53 10° SW 20:41:06 30° S 20:47:36 10° ESE visible
18 Sep - 22:27:57 10° WSW 22:33:59 26° SSW 22:40:10 10° SE visible
19 Sep - 00:23:07 10° SW 00:26:40 14° SSW 00:30:14 10° S visible
19 Sep - 17:43:28 10° SSW 17:47:39 17° SSE 17:51:59 10° ESE daylight
19 Sep - 19:34:19 10° SW 19:40:14 28° S 19:46:27 10° ESE daylight
19 Sep - 21:26:56 10° WSW 21:33:05 29° S 21:39:28 10° SE visible
19 Sep - 23:21:02 10° WSW 23:25:52 18° SSW 23:30:45 10° SSE visible
20 Sep - 16:44:36 10° S 16:47:00 12° SSE 16:49:27 10° SE daylight
20 Sep - 18:33:57 10° SW 18:39:25 25° SSE 18:45:10 10° ESE daylight
20 Sep - 20:26:06 10° WSW 20:32:11 30° S 20:38:35 10° SE visible
20 Sep - 22:19:33 10° WSW 22:25:01 22° SSW 22:30:37 10° SSE visible
21 Sep - 17:33:53 10° SSW 17:38:41 21° SSE 17:43:43 10° ESE daylight
21 Sep - 19:25:26 10° SW 19:31:20 29° S 19:37:33 10° ESE daylight
21 Sep - 21:18:24 10° WSW 21:24:09 25° SSW 21:30:08 10° SE visible
21 Sep - 23:13:35 10° SW 23:16:50 13° SSW 23:20:07 10° S visible
22 Sep - 16:34:12 10° SSW 16:38:01 16° SSE 16:41:57 10° ESE daylight
22 Sep - 18:24:57 10° SW 18:30:31 27° S 18:36:25 10° ESE daylight
22 Sep - 20:17:29 10° WSW 20:23:18 27° S 20:29:25 10° SE visible
22 Sep - 22:11:32 10° WSW 22:16:02 17° SSW 22:20:39 10° SSE visible
23 Sep - 15:35:32 10° S 15:37:25 11° SSE 15:39:19 10° SE daylight
23 Sep - 17:24:39 10° SW 17:29:46 24° SSE 17:35:10 10° ESE daylight
23 Sep - 19:16:43 10° WSW 19:22:27 28° S 19:28:32 10° SE daylight
23 Sep - 21:10:07 10° WSW 21:15:13 21° SSW 21:20:31 10° SSE visible
24 Sep - 16:24:37 10° SSW 16:29:05 20° SSE 16:33:45 10° ESE daylight
24 Sep - 18:16:07 10° SW 18:21:40 28° S 18:27:32 10° ESE daylight
24 Sep - 20:09:02 10° WSW 20:14:24 24° SSW 20:20:03 10° SE visible
24 Sep - 22:04:21 10° SW 22:07:02 12° SSW 22:09:45 10° S visible
25 Sep - 15:24:58 10° SSW 15:28:28 15° SSE 15:32:03 10° SE daylight
25 Sep - 17:15:40 10° SW 17:20:55 26° S 17:26:26 10° ESE daylight
25 Sep - 19:08:09 10° WSW 19:13:36 26° S 19:19:21 10° SE daylight
25 Sep - 21:02:14 10° SW 21:06:16 16° SSW 21:10:26 10° SSE visible
